Location: Bruderhein
(53.8035°N, 112.9265°W)
Time: 03:29:06
(UTC+00:00)

KKS-1 - Pass Details

Date: 07 April 2023
Orbit: 633 x 644 km, 98.2° (Epoch: 31 May)

Event Time Altitude Azimuth Distance (km) Brightness Sun altitude
Rises 05:08:19 0° 25° (NNE) 2,945 ? -22.2°
Reaches altitude 10° 05:11:02 10° 42° (NE) 2,031 ? -22.4°
Enters shadow 05:12:45 17° 62° (ENE) 1,608 ? -22.6°
